Home   Weather   Sevierville   Past weeks

Flag for USA Past Weather in Sevierville, Tennessee, USA — Yesterday and Last 2 Weeks

Now
51 °F

Passing clouds.


Feels Like: 51 °F
Forecast: 54 / 64 °F
Wind: No wind

Location: McGhee Tyson Airport

Current Time: Jan 21, 2017 at 6:05:43 am

Latest Report: Jan 21, 2017 at 4:53 am


Visibility: 10 mi

Pressure: 29.80 "Hg

Humidity: 89%

Dew Point: 48 °F

Location of SeviervilleLocation

Past Weather in Sevierville — Graph

°F

Sevierville Temperature Yesterday

Maximum temperature yesterday: 68 °F (at 2:53 pm)
Minimum temperature yesterday: 51 °F (at 1:53 am)
Average temperature yesterday: 59 °F

High & Low Weather Summary for the Past Weeks

 TemperatureHumidityPressure
High68 °F (Jan 20, 2:53 pm)100% (Jan 16, 9:16 am)30.79 "Hg (Jan 16, 9:16 am)
Low8 °F (Jan 8, 3:53 am)32% (Jan 9, 2:53 pm)29.70 "Hg (Jan 20, 1:53 am)
Average48 °F75%30.24 "Hg
* Reported Jan 6 4:53 am — Jan 21 4:53 am, Sevierville, Weather by CustomWeather, © 2017

Note: Actual official high and low records may vary slightly from our data, if they occured in-between our weather recording intervals... More about our weather records

Advertising

Sevierville Weather History for the Previous 24 Hours

Scroll right to see more
 ConditionsComfort  
Time TempWeatherWind HumidityBarometerVisibility
4:53 am
Sat, Jan 21
51 °FPassing clouds.No wind89%29.80 "Hg10 mi
3:53 am53 °FPassing clouds.No wind86%29.81 "Hg10 mi
2:53 am53 °FPassing clouds.3 mph86%29.81 "Hg10 mi
1:53 am53 °FPassing clouds.No wind86%29.81 "Hg10 mi
12:53 am58 °FPassing clouds.5 mph72%29.80 "Hg10 mi
11:53 pm
Fri, Jan 20
57 °FPassing clouds.No wind74%29.81 "Hg10 mi
10:53 pm58 °FPassing clouds.No wind72%29.82 "Hg10 mi
9:53 pm58 °FPassing clouds.No wind72%29.82 "Hg10 mi
8:53 pm58 °FPassing clouds.3 mph75%29.81 "Hg10 mi
7:53 pm61 °FPassing clouds.3 mph65%29.79 "Hg10 mi
6:53 pm60 °FPassing clouds.5 mph67%29.77 "Hg10 mi
5:53 pm63 °FPassing clouds.5 mph60%29.76 "Hg10 mi
4:53 pm67 °FPartly sunny.13 mph55%29.76 "Hg10 mi
3:53 pm68 °FBroken clouds.17 mph53%29.76 "Hg10 mi
2:53 pm68 °FBroken clouds.14 mph57%29.76 "Hg10 mi
1:53 pm66 °FPartly sunny.20 mph61%29.77 "Hg10 mi
12:53 pm66 °FPartly sunny.14 mph63%29.79 "Hg10 mi
12:14 pm64 °FCloudy.16 mph75%29.83 "Hg10 mi
11:31 am62 °FMore clouds than sun.13 mph83%29.85 "Hg10 mi
10:53 am61 °FMostly cloudy.10 mph90%29.83 "Hg10 mi
10:26 am60 °FOvercast.5 mph90%29.85 "Hg10 mi
9:53 am58 °FMostly cloudy.3 mph90%29.83 "Hg10 mi
8:53 am57 °FLow clouds.7 mph93%29.80 "Hg10 mi
7:53 am56 °FLow clouds.5 mph93%29.78 "Hg10 mi
7:02 am55 °FLow clouds.5 mph93%29.78 "Hg10 mi
6:53 am55 °FOvercast.3 mph93%29.77 "Hg10 mi
6:33 am55 °FOvercast.5 mph93%29.77 "Hg10 mi
Weather by CustomWeather, © 2017

See weather overviewHow to use our weather pages